Weather History for North Myrtle Beach, SC

Change the Weather History Date:

Saturday, September 21, 2013

  Actual Average Record
Temperature  
Mean Temperature 75 °F 74 °F  
Max Temperature 83 °F 83 °F 92 °F (1954)
Min Temperature 66 °F 66 °F 54 °F (1991)
Degree Days  
Heating Degree Days 0 0  
Month to date heating degree days 0 0  
Since 1 July heating degree days 0 0  
Cooling Degree Days 10 9  
Month to date cooling degree days 246 238  
Year to date cooling degree days 1697 1714  
Growing Degree Days 24 (Base 50)    
Moisture  
Dew Point 68 °F    
Average Humidity 79    
Maximum Humidity 93    
Minimum Humidity 65    
Precipitation  
Precipitation T in 0.16 in 1.27 in (2000)
Month to date precipitation 0.02 4.59  
Year to date precipitation 40.78 39.94  
Sea Level Pressure  
Sea Level Pressure 29.86 in    
Wind  
Wind Speed 8 mph (South)    
Max Wind Speed 20 mph    
Max Gust Speed 25 mph    
Visibility 10 miles    
Events Rain    
T = Trace of Precipitation, MM = Missing Value Source: NWS Daily Summary

Daily Weather History Graph

Daily Weather History Graph

Search for Another Location

Airport:

Trip Planner

Search our weather history database for the weather conditions in past years. The results will help you decide how hot, cold, wet, or windy it might be!

Date:

Astronomy

Sep. 21, 2013 Rise Set
Actual Time 7:02 AM EDT 7:12 PM EDT
Civil Twilight 6:37 AM EDT 7:37 PM EDT
Nautical Twilight 6:08 AM EDT 8:06 PM EDT
Astronomical Twilight 5:38 AM EDT 8:36 PM EDT
Moon 8:31 PM EDT (9/21) 9:10 AM EDT (9/21)
Length of Visible Light 13h 00m
Length of Day
12h 10m
Waning Gibbous, 94% of the Moon is Illuminated
Sep 21
Waning Gibbous
Sep 26
Last Quarter
Oct 4
New
Oct 11
First Quarter
Oct 18
Full

Hourly Weather History & Observations

Time (EDT) Temp. Heat Index Dew Point Humidity Pressure Visibility Wind Dir Wind Speed Gust Speed Precip Events Conditions
12:53 AM 75.9 °F - 64.9 °F 69% 29.96 in 10.0 mi SSE 4.6 mph - N/A   Overcast
1:53 AM 75.9 °F - 66.0 °F 71% 29.95 in 10.0 mi South 5.8 mph - N/A   Overcast
2:53 AM 77.0 °F - 66.0 °F 69% 29.95 in 10.0 mi SSW 4.6 mph - N/A   Overcast
3:53 AM 72.0 °F - 66.9 °F 84% 29.93 in 10.0 mi Calm Calm - N/A   Overcast
4:53 AM 70.0 °F - 66.0 °F 87% 29.91 in 10.0 mi Calm Calm - N/A   Overcast
5:53 AM 69.1 °F - 66.0 °F 90% 29.91 in 10.0 mi Calm Calm - N/A   Overcast
6:53 AM 66.9 °F - 64.9 °F 93% 29.90 in 10.0 mi Calm Calm - N/A   Partly Cloudy
7:53 AM 68.0 °F - 66.0 °F 93% 29.91 in 10.0 mi Calm Calm - N/A   Overcast
8:53 AM 70.0 °F - 66.9 °F 90% 29.93 in 10.0 mi ENE 3.5 mph - N/A   Overcast
9:53 AM 73.0 °F - 68.0 °F 84% 29.92 in 10.0 mi Calm Calm - N/A   Overcast
10:53 AM 75.9 °F - 66.9 °F 74% 29.91 in 10.0 mi Calm Calm - N/A   Overcast
11:53 AM 80.1 °F 82.7 °F 68.0 °F 67% 29.89 in 10.0 mi SSW 8.1 mph - N/A   Scattered Clouds
12:53 PM 80.1 °F 83.2 °F 70.0 °F 71% 29.87 in 10.0 mi SSE 6.9 mph - N/A   Clear
1:53 PM 81.0 °F 84.9 °F 71.1 °F 72% 29.84 in 10.0 mi SSE 9.2 mph - N/A   Clear
2:53 PM 82.0 °F 85.9 °F 70.0 °F 67% 29.83 in 10.0 mi South 10.4 mph - N/A   Clear
3:53 PM 81.0 °F 84.1 °F 69.1 °F 67% 29.80 in 10.0 mi SSW 12.7 mph - N/A   Clear
4:53 PM 80.1 °F 82.9 °F 69.1 °F 69% 29.79 in 10.0 mi South 10.4 mph - N/A   Scattered Clouds
5:53 PM 80.1 °F 82.9 °F 69.1 °F 69% 29.78 in 10.0 mi SSW 12.7 mph - N/A   Clear
6:53 PM 79.0 °F - 69.1 °F 72% 29.78 in 10.0 mi SSW 11.5 mph - N/A   Clear
7:53 PM 79.0 °F - 70.0 °F 74% 29.78 in 10.0 mi South 11.5 mph - 0.00 in Rain Light Rain
8:53 PM 78.1 °F - 71.1 °F 79% 29.77 in 10.0 mi SSW 12.7 mph - 0.00 in   Scattered Clouds
9:53 PM 79.0 °F - 70.0 °F 74% 29.75 in 10.0 mi SSW 15.0 mph 21.9 mph N/A   Mostly Cloudy
10:53 PM 79.0 °F - 70.0 °F 74% 29.75 in 10.0 mi SSW 17.3 mph 23.0 mph N/A   Partly Cloudy
11:53 PM 79.0 °F - 69.1 °F 72% 29.74 in 10.0 mi SSW 16.1 mph 24.2 mph N/A   Scattered Clouds